Regional Weather Roundup
Issued by NWS Bismarck, ND

Home | Current Version | Previous Version | Text Only | Print | Product List | Glossary On
Versions: 1 2 3 4 5 6 7 8 9 10 11 12 13 14 15 16 17 18 19 20 21 22 23 24 25 26 27 28 29 30 31 32 33 34 35 36 37 38 39 40 41 42 43 44 45 46 47 48 49 50
000
ASUS43 KBIS 212310
RWRBIS

NWR BROADCAST TEXT
NATIONAL WEATHER SERVICE BISMARCK ND
600 PM CDT FRI JUL 21 2017

NOTE: "FAIR" INDICATES FEW OR NO CLOUDS BELOW 12,000 FEET WITH NO
SIGNIFICANT WEATHER AND/OR OBSTRUCTIONS TO VISIBILITY.


CITY           SKY/WX    TMP DP  RH WIND       PRES   REMARKS
WILLISTON      SUNNY     95  35  12 W20G26    29.79F HX  90
MINOT          FAIR      91  60  35 W5        29.77F HX  90
MINOT AFB      FAIR      88  61  40 W7        29.76F
BISMARCK       MOSUNNY   91  67  44 NW7       29.79S HX  94
DICKINSON      MOSUNNY   93  52  24 NW16G22   29.82F HX  90
GARRISON         N/A     85  65  51 S6        29.79F
HETTINGER ARPT SUNNY     92  58  31 NW17G23   29.86S HX  91
JAMESTOWN      FAIR      81  64  56 NE10      29.79S
HAZEN            N/A     91  55  29 CALM      29.79F
LINTON           N/A    N/A N/A N/A NW7       29.80S FOG
MANDAN         FAIR      88  68  51 E6        29.80F HX  91
STANLEY        FAIR      88  59  37 SW16      29.82F
TIOGA          FAIR      90  48  24 W15G24    29.81F
WATFORD CITY   FAIR      93  39  15 W16G22    29.80S
$$

CITY           SKY/WX    TMP DP  RH WIND       PRES   REMARKS
GRAND FORKS    FAIR      80  74  81 N8        29.73R
GRAND FORKS AF PTSUNNY   79  72  77 N8        29.74R
DEVILS LAKE    FAIR      82  66  58 NW14      29.80R
FARGO          LGT RAIN  77  70  79 N20G31    29.73F
CAVALIER       FAIR      81  70  69 NE10      29.76F
GRAFTON        FAIR      82  73  74 NE12      29.76R
GWINNER          N/A     90  72  55 CALM      29.75F HX  96
LANGDON        MOCLDY    77  73  88 E12       29.82R
ROLLA            N/A     79  70  73 N5        29.83S
$$

CITY           SKY/WX    TMP DP  RH WIND       PRES   REMARKS
ABERDEEN       SUNNY     88  73  61 CALM      29.76S HX  95
MOBRIDGE       PTSUNNY   93  74  53 N3        29.75S HX 103
BUFFALO          N/A     91  39  16 NW18G26   29.84S
RAPID CITY     SUNNY     94  48  20 N20G29    29.91S HX  90
GLASGOW        SUNNY     87  33  14 MISG      29.87F
SIDNEY         SUNNY     92  33  12 W17G26    29.83S
WOLF POINT     SUNNY     91  31  11 W20G26    29.86R
GLENDIVE       SUNNY     89  34  14 NW13G24   29.89S
MILES CITY     SUNNY     93  22   7 W14G22    29.89F
BAKER          SUNNY     91  27  10 W14G26    29.92S
$$

CITY           SKY/WX    TMP DP  RH WIND       PRES   REMARKS
BILLINGS       SUNNY     93  15   6 NW18G30   29.95F
GREAT FALLS    SUNNY     86  22   9 W14G24    29.98S
REGINA         MOSUNNY   82  52  34 W21G30    29.79S
ESTEVAN        PTSUNNY   84  61  45 NW6       29.79S
$$





USA.gov is the U.S. government's official web portal to all federal, state and local government web resources and services.